OBJECT CA, 55081

Orbit data source: Space-Track

You're viewing an Uncataloged Satellite

Recently launched and/or uncataloged satellites may have evolving metadata. Metadata may include but not limited to: Owner, Maufacturer, Bus, Motor, and Mission.

OBJECT CA, 55081 is a satellite in SSO that was launched on Tue, 03 Jan 2023 UTC via an FALCON 9 launch vehicle from the Air Force Eastern Test Range (AFETR). Unknown objects in Earth's orbit typically refer to objects detected orbiting the Earth but have not yet been identified or cataloged. These objects could be anything from previously untracked satellites, spent rocket stages, debris from satellite collisions, or even natural meteoroids temporarily captured by Earth's gravity.

Loading next visibility...
Identifier
55081, 2023-001CA
Orbit
SSO
Country
Flag of TBDTBD
Related business
None
Manufacturer
Unknown
Mission
Non-operational Amateur Technology
Bus & Motor
Unknown
Mass
Unknown
Launch date (UTC)
2023-01-03 (3 years ago)
Launch vehicle
FALCON 9
Launch site
Air Force Eastern Test Range (AFETR)
Object type
Unknown
Shape & HBR
Box, 0.1 m
Radar Cross Section
0.025 m², Small (<0.1 m²)

Expand to show TLE details & history
Last TLE update: 12 hours ago

TLE from 12 hours ago
0 OBJECT CA
1 55081U 23001CA  25287.30071896  .00110606  00000-0  89864-3 0  9995
2 55081  97.3508   1.6089 0005145 210.9559 149.1401 15.70351807155371
Epoch: 2025-10-14T07:13Z
TLE epoch observation values (Epoch: 2025-10-14T07:13:02.118Z)
Latitude
0.00001°
Longitude
-129.74105°
Altitude
364.027 km
Speed
7.689 km/s
True Right ascension
00h 06m 26s
True Declination
0° 00' 00"
Sunlit
Object was in full shadow at epoch
Visualization orbit readout
Latitude
Unknown
Longitude
Unknown
Altitude
Unknown
Speed
Unknown
Apparent Right ascension
Unknown
Apparent Declination
Unknown
Sunlit
N/A
Visualization observer readout
Local Sidereal Time
13:28:57
Azimuth
Unknown
Elevation
Unknown
Doppler factor
Unknown
Orbital elements
Apogee altitude
358.252 km
Perigee altitude
351.323 km
Semi-major axis
6,732.924 km
Eccentricity
0.00051
Inclination
97.3508°
RAAN
1.6089°
Arg. of periapsis
210.9559°
True anomaly
149.17032°
Mean anomaly
149.1401°
Eccentric anomaly
149.15521°
Mean motion
3.9286 °/min
Orbital period
91.64 mins
BSTAR
0.00089864
Loading maneuver chart data...
Computing Atmospheric mass density...

Documentation

Showing up to 5 results
|